�������r�C�����j�^�v���󋵏��
Date,Time,5�C6���@���p�r�C��,����,����(m/s)
2023/04/29,00:00,3.7,��,4.9
2023/04/29,00:10,3.8,��,6.1
2023/04/29,00:20,3.6,��,6.7
2023/04/29,00:30,3.6,��,5.6
2023/04/29,00:40,3.5,��쐼,5.5
2023/04/29,00:50,3.7,��,6.8
2023/04/29,01:00,3.6,��쐼,6.7
2023/04/29,01:10,3.6,��,5.3
2023/04/29,01:20,3.6,��,5.8
2023/04/29,01:30,3.6,��,6.3
2023/04/29,01:40,3.8,��,6.2
2023/04/29,01:50,3.7,��,4.6
2023/04/29,02:00,3.7,��쐼,4.5
2023/04/29,02:10,3.7,��,6.2
2023/04/29,02:20,3.6,��,6.1
2023/04/29,02:30,3.6,��,5.8
2023/04/29,02:40,3.9,��,5.4
2023/04/29,02:50,3.6,��,6.0
2023/04/29,03:00,3.6,��,6.0
2023/04/29,03:10,3.7,��,6.4
2023/04/29,03:20,3.7,��,5.5
2023/04/29,03:30,3.7,��,5.7
2023/04/29,03:40,3.6,��,6.7
2023/04/29,03:50,3.5,��,6.5
2023/04/29,04:00,3.6,��,6.5
2023/04/29,04:10,3.6,��,6.9
2023/04/29,04:20,3.7,��,7.6
2023/04/29,04:30,3.6,��,9.0
2023/04/29,04:40,3.6,��,9.1
2023/04/29,04:50,3.8,��쐼,7.4
2023/04/29,05:00,3.6,��쐼,6.9
2023/04/29,05:10,3.7,��,5.4
2023/04/29,05:20,3.7,��,5.8
2023/04/29,05:30,3.7,��,5.9
2023/04/29,05:40,3.6,��,5.7
2023/04/29,05:50,3.7,��쓌,5.7
2023/04/29,06:00,3.6,��,6.2
2023/04/29,06:10,3.7,��,5.9
2023/04/29,06:20,3.7,��,5.3
2023/04/29,06:30,3.6,��,6.2
2023/04/29,06:40,3.8,��,6.0
2023/04/29,06:50,3.5,��,4.4
2023/04/29,07:00,3.6,��쓌,4.4
2023/04/29,07:10,3.7,��쓌,3.9
2023/04/29,07:20,3.5,��쓌,3.7
2023/04/29,07:30,3.8,��쓌,5.1
2023/04/29,07:40,3.8,��쓌,4.9
2023/04/29,07:50,3.6,��쓌,6.6
2023/04/29,08:00,3.6,��쓌,7.4
2023/04/29,08:10,3.7,��쓌,7.9
2023/04/29,08:20,3.6,��,7.2
2023/04/29,08:30,3.6,��,8.1
2023/04/29,08:40,3.8,��쓌,8.9
2023/04/29,08:50,3.6,��쓌,10.8
2023/04/29,09:00,3.6,��쓌,10.8
2023/04/29,09:10,3.5,��쓌,10.2
2023/04/29,09:20,3.6,��쓌,11.1
2023/04/29,09:30,3.6,��쓌,12.2
2023/04/29,09:40,3.6,��쓌,13.3
2023/04/29,09:50,3.6,��쓌,12.4
2023/04/29,10:00,3.7,��쓌,13.3
2023/04/29,10:10,3.6,��쓌,14.1
2023/04/29,10:20,3.8,��쓌,12.7
2023/04/29,10:30,3.6,��쓌,13.0
2023/04/29,10:40,3.6,��쓌,13.5
2023/04/29,10:50,3.6,��쓌,14.4
2023/04/29,11:00,3.7,��쓌,13.5
2023/04/29,11:10,3.8,��쓌,13.6
2023/04/29,11:20,3.6,��쓌,12.8
2023/04/29,11:30,3.7,��쓌,13.6
2023/04/29,11:40,3.6,��쓌,13.6
2023/04/29,11:50,3.6,��쓌,15.2
2023/04/29,12:00,3.6,��쓌,15.2
2023/04/29,12:10,3.7,��쓌,14.1
2023/04/29,12:20,3.6,��쓌,15.2
2023/04/29,12:30,3.6,��쓌,16.9
2023/04/29,12:40,3.7,��쓌,15.0
2023/04/29,12:50,3.6,��쓌,16.6
2023/04/29,13:00,3.7,��쓌,17.5
2023/04/29,13:10,3.7,��쓌,13.8
2023/04/29,13:20,3.6,��쓌,17.2
2023/04/29,13:30,3.6,��쓌,18.6
2023/04/29,13:40,3.8,��,14.1
2023/04/29,13:50,3.5,��쓌,15.5
2023/04/29,14:00,3.6,��쓌,14.1
2023/04/29,14:10,3.6,��쓌,14.4
2023/04/29,14:20,3.9,��,13.6
2023/04/29,14:30,3.7,��,12.2
2023/04/29,14:40,3.8,��,12.4
2023/04/29,14:50,3.7,��쓌,12.0
2023/04/29,15:00,3.5,��쓌,14.9
2023/04/29,15:10,3.6,��쓌,14.6
2023/04/29,15:20,3.6,��쓌,11.6
2023/04/29,15:30,3.9,��,11.6
2023/04/29,15:40,3.5,��쓌,15.0
2023/04/29,15:50,3.7,��,13.0
2023/04/29,16:00,3.9,��쓌,13.3
2023/04/29,16:10,3.6,��,11.6
2023/04/29,16:20,3.7,��,13.3
2023/04/29,16:30,3.7,��,14.6
2023/04/29,16:40,3.7,��,14.4
2023/04/29,16:50,3.9,��,16.0
2023/04/29,17:00,3.5,��,13.3
2023/04/29,17:10,3.8,��,14.1
2023/04/29,17:20,3.6,��,13.6
2023/04/29,17:30,3.7,��,9.9
2023/04/29,17:40,3.5,��쓌,11.1
2023/04/29,17:50,3.6,��,10.5
2023/04/29,18:00,3.8,��,9.2
2023/04/29,18:10,3.7,��,11.0
2023/04/29,18:20,3.7,��,11.1
2023/04/29,18:30,3.6,��,10.6
2023/04/29,18:40,3.6,��,10.0
2023/04/29,18:50,3.6,��,10.8
2023/04/29,19:00,3.5,��,10.5
2023/04/29,19:10,3.8,��,8.8
2023/04/29,19:20,3.7,��,10.2
2023/04/29,19:30,3.6,��,11.4
2023/04/29,19:40,3.6,��쓌,9.4
2023/04/29,19:50,3.7,��,9.4
2023/04/29,20:00,3.8,��쓌,11.4
2023/04/29,20:10,3.6,��쓌,10.0
2023/04/29,20:20,3.6,��쓌,11.9
2023/04/29,20:30,3.8,��쓌,11.9
2023/04/29,20:40,3.7,��쓌,10.5
2023/04/29,20:50,3.8,��,12.8
2023/04/29,21:00,3.7,��,12.2
2023/04/29,21:10,3.7,��쓌,10.8
2023/04/29,21:20,3.7,��,8.0
2023/04/29,21:30,3.6,��,10.5
2023/04/29,21:40,3.7,��,11.4
2023/04/29,21:50,3.5,��,10.2
2023/04/29,22:00,3.7,��쓌,9.5
2023/04/29,22:10,3.5,��쓌,9.4
2023/04/29,22:20,3.6,��,8.3
2023/04/29,22:30,3.7,��,8.8
2023/04/29,22:40,3.5,��,7.2
2023/04/29,22:50,3.7,��,7.0
2023/04/29,23:00,3.5,��,8.0
2023/04/29,23:10,3.7,��,7.7
2023/04/29,23:20,3.6,��,8.7
2023/04/29,23:30,3.8,��,7.1
2023/04/29,23:40,3.7,��,6.7
2023/04/29,23:50,3.7,��,7.7
